Regional Weather Roundup
Issued by NWS

Home | Current Version | Previous Version | Graphics & Text | Print | Product List | Glossary On
Versions: 1 2 3 4 5 6 7 8 9 10 11 12 13 14 15 16 17 18 19 20 21 22 23 24 25 26 27 28 29 30 31 32 33 34 35 36 37 38 39 40 41 42 43 44 45 46 47 48 49 50
000
ASUS45 KTFX 271704
RWRMT
MONTANA HOURLY WEATHER ROUNDUP
NATIONAL WEATHER SERVICE GREAT FALLS MT
1104 AM MDT WED AUG 27 2014

NOTE: "FAIR" INDICATES FEW OR NO CLOUDS BELOW 12000 FEET WITH NO
SIGNIFICANT WEATHER AND/OR OBSTRUCTIONS TO VISIBILITY.

* THESE STATIONS ARE NOT UNDER NWS QUALITY CONTROL. THEY DO NOT
   REPORT WEATHER SUCH AS PRECIPITATION OR FOG.

MTZ001>007-043-271800-
WEST OF THE DIVIDE
CITY           SKY/WX    TMP DP  RH WIND       PRES   REMARKS
KALISPELL      SUNNY     68  48  49 CALM      30.11F
MISSOULA       SUNNY     64  45  50 VRB5      30.18F
BUTTE          SUNNY     64  45  50 N3        30.24F
MULLAN PASS    SUNNY     63  39  41 VRB3      30.26R
* LINCOLN      N/A       59  45  60 NE2        N/A
* LOOKOUT PASS N/A       67  47  49 N/A        N/A
* POLSON       N/A       73  52  48 S3         N/A
* RONAN APT    SUNNY     70  50  49 N/A        N/A
* SEELEY LAKE  N/A       63  46  54 E2         N/A
* THOMP F APT  SUNNY     66  43  43 S5         N/A
$$

MTZ008-052>055-271800-
SOUTHWEST MONTANA
CITY           SKY/WX    TMP DP  RH WIND       PRES   REMARKS
BOZEMAN        SUNNY     70  46  42 NE3       30.18F
DILLON         SUNNY     66  45  47 S3        30.22S
W YELLOWSTONE  SUNNY     55  41  59 CALM      30.31F
* THREE FORKS  SUNNY     66  39  37 N/A        N/A
* BOULDER HILL N/A       64  40  41 S3         N/A
* MONIDA PASS  N/A       62  41  46 VRB4       N/A
* RAYNOLDS PAS N/A       64  41  43 SE3        N/A
* WHITEHALL    N/A       65  50  58 N3         N/A
* WISE RIVER   N/A       55  44  67 W6         N/A
$$

MTZ009>010-012-014-046-048-049-054-271800-
EAST SLOPES AND CENTRAL MONTANA
CITY           SKY/WX    TMP DP  RH WIND       PRES   REMARKS
CUT BANK       SUNNY     79  46  31 W9        30.05S
GREAT FALLS    SUNNY     73  45  37 SW10      30.07S
HELENA         SUNNY     66  46  49 CALM      30.14F
MALMSTROM AFB  SUNNY     73  43  34 W14G22    30.08S
* CONRAD       SUNNY     79  46  31 W7         N/A
* DEARBORN     N/A       71  44  38 S9G16      N/A
* EAST GLACIER N/A       69  46  44 W18G23     N/A
* MONARCH      N/A       67  33  28 W16G23     N/A
* PENDROY      N/A       76  45  33 NW6G12     N/A
* ROGERS PASS  N/A       62  42  48 SE10G18    N/A
* SAINT MARY   N/A       71  47  43 S8G23      N/A
* SWEET GRASS  N/A       75  46  36 NW13G22    N/A
$$

MTZ011-013-016-021-035-040-045-047-050-051-271800-
NORTH CENTRAL MONTANA
CITY           SKY/WX    TMP DP  RH WIND       PRES   REMARKS
HAVRE          SUNNY     75  48  39 SW15      29.99F
LEWISTOWN      SUNNY     75  45  34 NW9       30.09F
* CHESTER      N/A       72  46  40 W6G11      N/A
* DENTON       N/A       76  40  27 W17G22     N/A
* GEYSER       N/A       75  39  27 W16G26     N/A
* JUDITH GAP   N/A       72  42  34 SW14       N/A
* LOMA         N/A       72  49  44 SW7        N/A
$$

MTZ017>020-022>027-061-062-271800-
NORTHEAST MONTANA
CITY           SKY/WX    TMP DP  RH WIND       PRES   REMARKS
GLASGOW        SUNNY     72  55  55 SE8       30.00F
GLENDIVE       SUNNY     70  61  73 SE8       30.09F
JORDAN         SUNNY     79  54  42 SW8       30.02F
SIDNEY         SUNNY     70  61  73 S6        30.09S
WOLF POINT     SUNNY     75  57  54 NE5       30.02F
* BEAVER HILL  N/A       74  55  52 SE9        N/A
* CIRCLE       N/A       76  59  56 S8         N/A
* LINDSAY DVD  N/A       72  57  59 SE11       N/A
* NAVAJO       N/A       76  53  45 S12G18     N/A
$$

MTZ028>042-056>058-271800-
SOUTHCENTRAL AND SOUTHEAST MONTANA
CITY           SKY/WX    TMP DP  RH WIND       PRES   REMARKS
BAKER          SUNNY     73  57  57 SE16      30.12F
BILLINGS       SUNNY     70  54  57 SW7       30.10F
LIVINGSTON     SUNNY     73  43  34 W17       30.15F
MILES CITY     SUNNY     73  57  57 SE6       30.07F
* LAUREL APT   SUNNY     70  52  53 S6         N/A
* ROUNDUP APT  SUNNY     68  52  57 S10G16     N/A
* ALZADA       N/A       69  57  66 E10        N/A
* HYSHAM       N/A       77  47  35 S2G7       N/A
* LAME DEER    N/A       73  51  46 E8         N/A
* REED POINT   N/A       71  45  39 W6         N/A
* ROSCOE HILL  N/A       71  34  26 VRB4       N/A
$$

REGIONAL REPORTS...DAKOTAS
CITY           SKY/WX    TMP DP  RH WIND       PRES   REMARKS
WILLISTON      SUNNY     70  57  64 VRB7      30.08F
DICKINSON      SUNNY     70  57  64 S12       30.12F
BEACH          N/A       68  61  78 S12G18    30.12F
CROSBY         SUNNY     73  59  62 S10       30.07F
TIOGA          SUNNY     72  63  73 S9G18     30.13S
WATFORD CITY   SUNNY     73  57  57 S10       30.07F
BISMARCK       SUNNY     68  57  68 SE6       30.16F
GRAND FORKS    SUNNY     70  54  57 S7        30.17S
FARGO          PTCLDY    70  57  64 E3        30.19F
BUFFALO SD     SUNNY     73  57  57 SE10      30.07F
RAPID CITY     SUNNY     70  61  73 NE12      30.14S
$$

REGIONAL REPORTS...WYOMING/IDAHO/WASHINGTON
CITY           SKY/WX    TMP DP  RH WIND       PRES   REMARKS
GILLETTE       PTSUNNY   72  55  55 SE6       30.15F
SHERIDAN       PTSUNNY   72  52  49 N3        30.13S
CODY           PTSUNNY   70  52  53 CALM      30.18F
YELLOWSTONE LA PTCLDY    54  46  74 E5        30.39S
SALMON         SUNNY     61  48  62 CALM      30.22F
MULLAN PASS    SUNNY     63  39  41 VRB3      30.26S
SAND POINT     SUNNY     68  54  61 CALM      30.08F
SPOKANE        SUNNY     75  45  34 S7        30.07S

$$



USA.gov is the U.S. government's official web portal to all federal, state and local government web resources and services.